Terminal Aerodrome Forecast
Issued by NWS

Home | Current Version | Previous Version | Text Only | Print | Product List | Glossary On
Versions: 1 2 3 4 5 6 7 8 9 10 11 12 13 14 15 16 17 18 19 20 21 22 23 24 25 26 27 28
000
FTUS44 KFWD 271510 AAA
TAFGKY
TAF AMD
KGKY 271510Z 2715/2812 17008KT P6SM BKN008 OVC012
      TEMPO 2716/2717 SCT008 BKN012
     FM271700 17013KT P6SM VCTS BKN015CB
     FM272000 17014KT P6SM SCT020 BKN050
     FM272200 19013KT P6SM SCT050
     FM280500 18012KT P6SM OVC012=

USA.gov is the U.S. government's official web portal to all federal, state and local government web resources and services.